timestamp,wind_dir_avg,wind_spd_avg,wind_spd_max_dir,wind_spd_gust,battery_voltage,lat,long
2023-02-25 00:04:00+00:00,353.0,8.41,341.0,10.32,12.25,47.59359,-54.27349
2023-02-25 00:14:00+00:00,8.0,9.34,5.0,10.79,12.17,47.59359,-54.27349
2023-02-25 00:24:00+00:00,5.0,9.87,8.0,10.96,12.17,47.59359,-54.27349
2023-02-25 00:34:00+00:00,13.0,10.71,13.0,11.92,12.17,47.59359,-54.27349
2023-02-25 00:44:00+00:00,16.0,10.05,21.0,12.53,12.17,47.59359,-54.27349
2023-02-25 00:54:00+00:00,19.0,10.32,19.0,11.78,12.17,47.59359,-54.27349
2023-02-25 01:04:00+00:00,18.0,10.33,16.0,12.17,12.17,47.59359,-54.27349
2023-02-25 01:14:00+00:00,12.0,10.22,11.0,11.81,12.17,47.59359,-54.27349
2023-02-25 01:24:00+00:00,20.0,9.38,26.0,10.62,12.17,47.59359,-54.27349
2023-02-25 01:34:00+00:00,15.0,9.93,13.0,11.23,12.17,47.59359,-54.27349
2023-02-25 01:44:00+00:00,17.0,10.81,17.0,11.88,12.17,47.59359,-54.27349
2023-02-25 01:54:00+00:00,14.0,11.3,13.0,13.39,12.17,47.59359,-54.27349
2023-02-25 02:04:00+00:00,15.0,11.08,17.0,12.57,12.17,47.59359,-54.27349
2023-02-25 02:14:00+00:00,18.0,10.25,14.0,12.52,12.09,47.59359,-54.27349
2023-02-25 02:24:00+00:00,12.0,12.03,12.0,14.22,12.09,47.59359,-54.27349
2023-02-25 02:34:00+00:00,11.0,11.24,13.0,13.69,12.09,47.59359,-54.27349
2023-02-25 02:44:00+00:00,13.0,11.97,14.0,14.02,12.09,47.59359,-54.27349
2023-02-25 02:54:00+00:00,12.0,11.97,15.0,13.58,12.09,47.59359,-54.27349
2023-02-25 03:04:00+00:00,12.0,11.53,9.0,12.76,12.09,47.59359,-54.27349
2023-02-25 03:14:00+00:00,9.0,10.75,13.0,13.41,12.01,47.59359,-54.27349
2023-02-25 03:24:00+00:00,7.0,9.97,7.0,12.47,12.01,47.59359,-54.27349
2023-02-25 03:34:00+00:00,356.0,10.36,341.0,12.47,12.01,47.59359,-54.27349
2023-02-25 03:44:00+00:00,4.0,9.52,6.0,11.64,12.01,47.59359,-54.27349
2023-02-25 03:54:00+00:00,7.0,8.6,15.0,9.9,12.01,47.59359,-54.27349
2023-02-25 04:04:00+00:00,3.0,10.11,16.0,12.47,12.01,47.59359,-54.27349
2023-02-25 04:14:00+00:00,354.0,9.5,19.0,11.33,12.01,47.59359,-54.27349
2023-02-25 04:24:00+00:00,348.0,10.65,340.0,12.09,12.01,47.59359,-54.27349
2023-02-25 04:34:00+00:00,7.0,10.29,10.0,11.97,12.01,47.59359,-54.27349
2023-02-25 04:44:00+00:00,10.0,9.49,11.0,10.98,12.01,47.59359,-54.27349
2023-02-25 04:54:00+00:00,10.0,9.79,12.0,10.69,12.01,47.59359,-54.27349
2023-02-25 05:04:00+00:00,8.0,10.05,336.0,11.61,12.01,47.59359,-54.27349
2023-02-25 05:14:00+00:00,13.0,12.38,12.0,13.05,12.01,47.59359,-54.27349
2023-02-25 05:24:00+00:00,10.0,9.77,9.0,10.98,12.01,47.59359,-54.27349
2023-02-25 05:34:00+00:00,13.0,9.84,11.0,11.61,12.01,47.59359,-54.27349
2023-02-25 05:44:00+00:00,10.0,9.45,9.0,11.88,12.01,47.59359,-54.27349
2023-02-25 05:54:00+00:00,12.0,11.84,13.0,12.56,12.01,47.59359,-54.27349
2023-02-25 06:04:00+00:00,12.0,10.37,14.0,11.72,12.01,47.59359,-54.27349
2023-02-25 06:14:00+00:00,11.0,10.83,13.0,12.4,11.93,47.59359,-54.27349
2023-02-25 06:24:00+00:00,12.0,11.27,11.0,13.46,11.93,47.59359,-54.27349
2023-02-25 06:34:00+00:00,12.0,11.85,12.0,13.93,11.93,47.59359,-54.27349
2023-02-25 06:44:00+00:00,333.0,11.67,335.0,12.39,11.93,47.59359,-54.27349
2023-02-25 06:54:00+00:00,4.0,9.94,6.0,10.92,11.93,47.59359,-54.27349
2023-02-25 07:04:00+00:00,357.0,9.53,17.0,10.27,11.93,47.59359,-54.27349
2023-02-25 07:14:00+00:00,336.0,8.55,328.0,9.37,11.93,47.59359,-54.27349
2023-02-25 07:24:00+00:00,329.0,11.02,329.0,11.78,11.93,47.59359,-54.27349
2023-02-25 07:34:00+00:00,331.0,10.37,329.0,10.98,11.93,47.59359,-54.27349
2023-02-25 07:44:00+00:00,315.0,0.01,2.0,0.0,11.93,47.59359,-54.27349
2023-02-25 07:54:00+00:00,13.0,12.12,12.0,13.64,11.93,47.59359,-54.27349
2023-02-25 08:04:00+00:00,6.0,10.37,336.0,11.52,11.93,47.59359,-54.27349
2023-02-25 08:14:00+00:00,11.0,12.93,7.0,13.94,11.93,47.59359,-54.27349
2023-02-25 08:24:00+00:00,12.0,12.48,13.0,13.46,11.93,47.59359,-54.27349
2023-02-25 08:34:00+00:00,11.0,10.84,14.0,12.88,11.93,47.59359,-54.27349
2023-02-25 08:44:00+00:00,14.0,12.04,13.0,13.93,11.93,47.59359,-54.27349
2023-02-25 08:54:00+00:00,15.0,11.41,13.0,12.41,11.93,47.59359,-54.27349
2023-02-25 09:04:00+00:00,15.0,10.95,16.0,12.01,11.93,47.59359,-54.27349
2023-02-25 09:14:01+00:00,13.0,11.38,12.0,13.46,11.86,47.59359,-54.27349
2023-02-25 09:24:01+00:00,14.0,9.55,12.0,11.0,11.86,47.59359,-54.27349
2023-02-25 09:34:01+00:00,14.0,11.61,17.0,12.14,11.86,47.59359,-54.27349
2023-02-25 09:44:01+00:00,13.0,9.67,15.0,10.22,11.86,47.59359,-54.27349
2023-02-25 09:54:01+00:00,15.0,9.2,15.0,9.48,11.86,47.59359,-54.27349
2023-02-25 10:04:01+00:00,315.0,0.01,12.0,0.0,11.86,47.59359,-54.27349
2023-02-25 10:14:00+00:00,16.0,8.19,15.0,8.87,11.86,47.59359,-54.27349
2023-02-25 10:24:00+00:00,16.0,8.39,15.0,8.93,11.86,47.59359,-54.27349
2023-02-25 10:34:00+00:00,315.0,0.01,16.0,0.0,11.86,47.59359,-54.27349
2023-02-25 10:44:00+00:00,338.0,10.34,0.0,11.42,11.86,47.59359,-54.27349
2023-02-25 10:54:00+00:00,345.0,8.79,350.0,9.54,11.86,47.59359,-54.27349
2023-02-25 11:04:00+00:00,16.0,9.12,15.0,9.94,11.86,47.59359,-54.27349
2023-02-25 11:14:00+00:00,13.0,8.81,13.0,8.83,12.33,47.59359,-54.27349
2023-02-25 11:24:00+00:00,332.0,10.82,332.0,10.84,12.33,47.59359,-54.27349
2023-02-25 11:34:00+00:00,315.0,0.01,19.0,0.0,12.33,47.59359,-54.27349
2023-02-25 11:44:00+00:00,315.0,0.01,24.0,0.0,12.33,47.59359,-54.27349
2023-02-25 11:54:00+00:00,315.0,0.01,15.0,0.0,12.33,47.59359,-54.27349
2023-02-25 12:04:00+00:00,315.0,0.01,325.0,0.0,12.33,47.59359,-54.27349
2023-02-25 12:14:00+00:00,341.0,8.74,15.0,9.59,14.48,47.59359,-54.27349
2023-02-25 12:24:00+00:00,315.0,0.01,18.0,0.0,14.48,47.59359,-54.27349
2023-02-25 12:34:00+00:00,315.0,0.01,329.0,0.0,14.48,47.59359,-54.27349
2023-02-25 12:44:00+00:00,14.0,9.07,16.0,9.18,14.48,47.59359,-54.27349
2023-02-25 12:54:00+00:00,338.0,9.12,328.0,10.72,14.48,47.59359,-54.27349
2023-02-25 13:04:00+00:00,315.0,0.01,323.0,0.0,14.48,47.59359,-54.27349
2023-02-25 13:14:00+00:00,336.0,8.32,326.0,9.84,14.4,47.59359,-54.27349
2023-02-25 13:24:00+00:00,18.0,7.5,18.0,7.52,14.4,47.59359,-54.27349
2023-02-25 13:34:00+00:00,13.0,8.15,13.0,8.16,14.4,47.59359,-54.27349
2023-02-25 13:44:00+00:00,15.0,7.94,13.0,9.03,14.4,47.59359,-54.27349
2023-02-25 13:54:00+00:00,21.0,6.92,12.0,8.72,14.4,47.59359,-54.27349
2023-02-25 14:04:00+00:00,14.0,7.62,16.0,8.28,14.4,47.59359,-54.27349
2023-02-25 14:14:00+00:00,6.0,7.46,11.0,8.05,13.68,47.59359,-54.27349
2023-02-25 14:24:00+00:00,17.0,6.81,16.0,7.84,13.68,47.59359,-54.27349
2023-02-25 14:34:00+00:00,4.0,5.81,28.0,7.66,13.68,47.59359,-54.27349
2023-02-25 14:44:00+00:00,351.0,8.31,354.0,10.04,13.68,47.59359,-54.27349
2023-02-25 14:54:00+00:00,346.0,8.09,330.0,9.52,13.68,47.59359,-54.27349
2023-02-25 15:04:00+00:00,5.0,6.62,1.0,7.58,13.68,47.59359,-54.27349
2023-02-25 15:14:00+00:00,353.0,7.44,359.0,8.82,13.76,47.59359,-54.27349
2023-02-25 15:24:00+00:00,357.0,6.87,345.0,8.2,13.76,47.59359,-54.27349
2023-02-25 15:34:00+00:00,6.0,6.96,4.0,7.81,13.76,47.59359,-54.27349
2023-02-25 15:44:00+00:00,354.0,6.6,3.0,8.66,13.76,47.59359,-54.27349
2023-02-25 15:54:00+00:00,330.0,8.83,326.0,10.24,13.76,47.59359,-54.27349
2023-02-25 16:04:00+00:00,336.0,8.1,328.0,9.78,13.76,47.59359,-54.27349
2023-02-25 16:14:00+00:00,354.0,7.14,323.0,8.61,14.64,47.59359,-54.27349
2023-02-25 16:24:00+00:00,340.0,8.13,329.0,9.75,14.64,47.59359,-54.27349
2023-02-25 16:34:00+00:00,340.0,8.2,333.0,10.96,14.64,47.59359,-54.27349
2023-02-25 16:44:00+00:00,337.0,7.08,325.0,8.6,14.64,47.59359,-54.27349
2023-02-25 16:54:00+00:00,359.0,4.58,1.0,6.61,14.64,47.59359,-54.27349
2023-02-25 17:04:00+00:00,351.0,5.46,320.0,7.44,14.64,47.59359,-54.27349
2023-02-25 17:14:00+00:00,349.0,5.77,314.0,7.52,14.0,47.59359,-54.27349
2023-02-25 17:24:00+00:00,352.0,5.29,325.0,8.7,14.0,47.59359,-54.27349
2023-02-25 17:34:00+00:00,325.0,8.88,326.0,10.59,14.0,47.59359,-54.27349
2023-02-25 17:44:00+00:00,319.0,7.04,332.0,9.48,14.0,47.59359,-54.27349
2023-02-25 17:54:00+00:00,321.0,7.67,316.0,9.08,14.0,47.59359,-54.27349
2023-02-25 18:04:00+00:00,319.0,7.64,320.0,9.65,14.0,47.59359,-54.27349
2023-02-25 19:14:00+00:00,335.0,8.92,334.0,10.68,14.4,47.59359,-54.27349
2023-02-25 19:24:00+00:00,341.0,9.05,334.0,11.15,14.4,47.59359,-54.27349
2023-02-25 19:34:00+00:00,335.0,8.06,340.0,9.99,14.4,47.59359,-54.27349
2023-02-25 19:44:00+00:00,322.0,7.33,325.0,8.58,14.4,47.59359,-54.27349
2023-02-25 19:54:00+00:00,321.0,6.97,328.0,8.64,14.4,47.59359,-54.27349
2023-02-25 20:04:00+00:00,345.0,6.55,337.0,9.1,14.4,47.59359,-54.27349
2023-02-25 20:14:00+00:00,346.0,6.76,333.0,8.3,13.6,47.59359,-54.27349
2023-02-25 20:24:00+00:00,341.0,6.56,340.0,7.69,13.6,47.59359,-54.27349
2023-02-25 20:34:00+00:00,340.0,5.62,337.0,6.82,13.6,47.59359,-54.27349
2023-02-25 20:44:00+00:00,337.0,5.8,338.0,8.2,13.6,47.59359,-54.27349
2023-02-25 20:54:00+00:00,339.0,4.51,347.0,6.34,13.6,47.59359,-54.27349
2023-02-25 21:04:00+00:00,325.0,4.68,319.0,5.45,13.6,47.59359,-54.27349
2023-02-25 21:14:01+00:00,314.0,5.05,313.0,5.93,13.29,47.59359,-54.27349
2023-02-25 21:24:01+00:00,318.0,4.89,320.0,5.81,13.29,47.59359,-54.27349
2023-02-25 21:34:01+00:00,327.0,4.41,320.0,5.66,13.29,47.59359,-54.27349
2023-02-25 21:44:01+00:00,326.0,3.35,312.0,4.64,13.29,47.59359,-54.27349
2023-02-25 21:54:01+00:00,308.0,4.6,310.0,5.56,13.29,47.59359,-54.27349
2023-02-25 22:04:01+00:00,320.0,4.22,318.0,5.01,13.29,47.59359,-54.27349
2023-02-25 22:14:00+00:00,321.0,4.94,326.0,6.71,12.49,47.59359,-54.27349
2023-02-25 22:24:00+00:00,328.0,4.89,325.0,6.22,12.49,47.59359,-54.27349
2023-02-25 22:34:00+00:00,328.0,5.96,326.0,7.21,12.49,47.59359,-54.27349
2023-02-25 22:44:00+00:00,337.0,5.92,337.0,7.35,12.49,47.59359,-54.27349
2023-02-25 22:54:00+00:00,349.0,6.54,343.0,7.8,12.49,47.59359,-54.27349
2023-02-25 23:04:00+00:00,327.0,6.71,329.0,7.57,12.49,47.59359,-54.27349
2023-02-25 23:14:00+00:00,331.0,5.93,326.0,7.39,12.25,47.59359,-54.27349
2023-02-25 23:24:00+00:00,322.0,6.21,328.0,7.51,12.25,47.59359,-54.27349
2023-02-25 23:34:00+00:00,343.0,7.13,355.0,8.93,12.25,47.59359,-54.27349
2023-02-25 23:44:00+00:00,345.0,9.6,344.0,11.28,12.25,47.59359,-54.27349
2023-02-25 23:54:00+00:00,349.0,9.29,348.0,10.58,12.25,47.59359,-54.27349
